Preview of NWS' New Version of Forecast
This preview is not operational and should not be used for support decisions.

Regional Weather Roundup (RWR)

Issued by Tampa Bay Area, FL (TBW)

                            
000
NZUS99 KTBW 170516
RWRTBW
Regional Weather Roundup National Weather Service Ruskin Florida
1200 AM EST MON DEC 17 2018

  
CITY           SKY/WX    TMP DP  RH WIND       PRES   REMARKS
Cross City     FAIR      45  44  97 CALM      30.18S                  
Williston        N/A    N/A N/A N/A MISG        N/A                   
Gainesville    FAIR      47  44  90 W3        30.18F                  
Ocala          FAIR      48  45  89 N6        30.17S                  
Crystal River  FAIR      50  46  87 CALM      30.17S                  
Leesburg       FAIR      52  49  89 N9        30.16S                  
Orlando        FAIR      54  51  90 W6        30.14F                  
Brooksville    CLOUDY    54  51  90 N5        30.17S                  
Zephyrhills    FAIR      50  49  97 CALM      30.16F                  
Winter Haven   FAIR      55  52  89 W6        30.16F                  
Bartow         FAIR      55  54  94 NW5       30.14F                  

CITY           SKY/WX    TMP DP  RH WIND       PRES   REMARKS
Tampa Intl     CLOUDY    59  53  80 NW5       30.16F                  
Tampa Exec       N/A     54  52  94 CALM      30.16F                  
MacDill AFB    CLOUDY    61  52  72 N5        30.15F                  
Peter O Knight MOCLDY    59  54  82 CALM      30.16F                  
Plant City     FAIR      54  52  94 CALM      30.17F                  
Clearwater     FAIR      58  52  80 NW8       30.15F                  
St Petersburg  MOCLDY    62  53  72 NW10      30.13F                  
Sarasota       MOCLDY    61  55  81 CALM      30.13F                  
Sebring        FAIR      57  51  80 CALM      30.15F                  
Punta Gorda    CLOUDY    59  54  83 N6        30.17S                  
Ft Myers       FAIR      60  54  80 N6        30.14F                  
Ft Myers-RSW   FAIR      60  56  86 N6        30.14F                  
Naples         CLOUDY    65  57  75 N3        30.13F                  

STATION/POSITION SKY/WX   TEMP WIND        PRES    VSBY
                          AIR  DIR/SP/G
                          (F)  (DEG/KT/KT) (MB)    (MI)
Keaton Beach               54  340/  2/  4 1021.9F
Sand Key                   73              1020.2F
003 Captiva                70  340/  8/ 12 1021.3
Venice                     60   50/  2/  2 1021.1F
Cedar Key                  51  350/  4/  7 1021.8F

CITY           SKY/WX    TMP DP  RH WIND       PRES   REMARKS
Tallahassee    FAIR      49  47  93 W5        30.16F                  
Daytona Beach  FAIR      53  51  93 NW5       30.14S                  
Melbourne      FAIR      55  50  83 W8        30.13S                  
W Palm Beach   FAIR      64  61  90 NW9       30.12S                  
Miami          FAIR      66  61  84 VRB6      30.12F                  
Key West       FAIR      71  64  78 NW3       30.13F                  
San Juan, PR   CLEAR     77  70  78 CALM      30.06F                  
Cancun, MX     MOCLDY    64  61  88 NW6       30.17S